Regional Weather Roundup
Issued by NWS

Home | Current Version | Previous Version | Graphics & Text | Print | Product List | Glossary On
Versions: 1 2 3 4 5 6 7 8 9 10 11 12 13 14 15 16 17 18 19 20 21 22 23 24 25 26 27 28 29 30 31 32 33 34 35 36 37 38 39 40 41 42 43 44 45 46 47 48 49 50
000
ASUS45 KTFX 290119
RWRMT
MONTANA REGIONAL WEATHER ROUNDUP
NATIONAL WEATHER SERVICE GREAT FALLS MT
700 PM MDT FRI AUG 28 2015

NOTE: "FAIR" INDICATES FEW OR NO CLOUDS BELOW 12000 FEET WITH NO
SIGNIFICANT WEATHER AND/OR OBSTRUCTIONS TO VISIBILITY.

MTZ001>007-043-290200-
WEST OF THE DIVIDE

CITY           SKY/WX    TMP DP  RH WIND       PRES   REMARKS
KALISPELL      CLOUDY    80  39  23 W7        29.96R SMOKE
MISSOULA       CLOUDY    75  43  31 S7        30.01R HAZE
BUTTE          CLOUDY    80  32  17 W7        30.09F HAZE
MULLAN PASS    CLOUDY    61  40  45 CALM      30.15S
DEER LODGE       N/A     77  39  25 NW15G31   30.07F
EUREKA           N/A     75  43  31 SE5       29.95F
HAMILTON         N/A     75  43  31 E8        30.02R
LIBBY            N/A     79  43  27 S5        29.95R
PLAINS           N/A     80  46  30 CALM      29.97F
RONAN            N/A     78  43  28 CALM      30.03R
THOMPSON FALLS   N/A     80  43  27 CALM      30.00S
$$

MTZ008-052>055-290200-
SOUTHWEST MONTANA

CITY           SKY/WX    TMP DP  RH WIND       PRES   REMARKS
BOZEMAN        PTSUNNY   79  47  32 E7        30.02F
DILLON         CLOUDY    79  41  25 W5        30.05F
W YELLOWSTONE  MOSUNNY   75  32  20 SW12G17   30.23S
THREE FORKS      N/A     79  41  25 CALM      29.99F
TWIN BRIDGES     N/A     81  42  25 SE6       30.03S
$$

MTZ009-010-012-014-046-048-049-054-290200-
EAST SLOPES AND CENTRAL MONTANA

CITY           SKY/WX    TMP DP  RH WIND       PRES   REMARKS
CUT BANK       CLOUDY    77  38  24 W31G46    29.95R HAZE
GREAT FALLS    CLOUDY    84  36  18 S7        29.91F HAZE
MALMSTROM AFB  CLOUDY    85  34  16 S9        29.90F
HELENA         PTSUNNY   86  42  21 NW13G18   29.95R
CONRAD           N/A     82  46  28 SW15      29.97R
$$

MTZ011-013-016-021-045-047-050-051-290200-
NORTH CENTRAL MONTANA

CITY           SKY/WX    TMP DP  RH WIND       PRES   REMARKS
HAVRE          PTSUNNY   79  50  36 E8        29.83F HAZE
LEWISTOWN      PTSUNNY   80  43  26 E8        30.00F
N BAR RANCH      N/A     79  34  19 CALM      30.06S
CHINOOK          N/A     79  52  38 E7        29.85F
FORT BENTON      N/A     88  37  16 S5        29.86S
$$

MTZ017>020-022>027-061-062-290200-
NORTHEAST MONTANA

CITY           SKY/WX    TMP DP  RH WIND       PRES   REMARKS
GLASGOW        CLOUDY    79  41  25 NW7       29.90S HAZE
JORDAN           N/A     85  45  24 N5        29.93S
SIDNEY         PTCLDY    73  52  46 CALM      29.90S
WOLF POINT     CLOUDY    77  51  40 S3        29.89S HAZE
MALTA            N/A     81  54  39 CALM      29.87S
PLENTYWOOD       N/A     79  46  31 W7        29.89S
POPLAR           N/A     82  43  24 SW5       29.90S
SCOBEY           N/A     77  45  32 W5        29.91S
$$

MTZ028>42-056>058-290200-
SOUTHCENTRAL AND SOUTHEAST MONTANA

CITY           SKY/WX    TMP DP  RH WIND       PRES   REMARKS
BAKER          CLOUDY    74  48  39 W6        29.99S HAZE
BILLINGS       MOCLDY    86  39  19 S5        30.00F HAZE
LIVINGSTON     MOSUNNY   83  35  18 CALM      30.03F
MILES CITY     CLOUDY    83  42  23 SW7       29.95F HAZE
EKALAKA          N/A     76  46  34 W2        30.02S
FORSYTH          N/A     88  39  18 E3        29.96S
LAUREL           N/A     85  45  24 E3        30.00S
ROUNDUP          N/A     86  29  12 CALM      29.91R
$$

REGIONAL REPORTS...DAKOTAS

CITY           SKY/WX    TMP DP  RH WIND       PRES   REMARKS
WILLISTON      MOCLDY    82  48  30 W7        29.89R HAZE
MINOT          CLEAR     78  60  53 CALM      29.85S
DICKINSON      MOCLDY    79  52  38 W5        29.92S HAZE
BEACH            N/A     73  48  40 W8        29.97S HAZE
CROSBY           N/A     75  50  41 W6        29.87S HAZE
BISMARCK       PTCLDY    78  68  71 SE6       29.88S
GRAND FORKS    MOCLDY    76  68  76 S9        29.83R
FARGO          CLEAR     78  67  68 S10       29.89R
BUFFALO SD       N/A     79  53  40 W6        29.94S
RAPID CITY     PTCLDY    78  64  61 CALM      30.03S
$$

REGIONAL REPORTS...WYOMING/IDAHO/WASHINGTON

CITY           SKY/WX    TMP DP  RH WIND       PRES   REMARKS
GILLETTE       PTCLDY    82  43  25 CALM      30.10R
SHERIDAN       PTCLDY    78  54  43 CALM      30.06S HAZE
BUFFALO WY     PTCLDY    79  42  26 N6        30.14S
CODY           CLOUDY    81  39  22 SE5       30.12R
YELLOWSTONE LA   N/A     69  31  24 VRB3      30.36F
IDAHO FALLS    PTSUNNY   85  41  21 S13       30.08F
SALMON         CLOUDY    81  48  32 NE5       29.96F
BOISE          CLOUDY    87  41  19 NW13      29.90F
SPOKANE        CLOUDY    79  42  26 S13       29.92F
$$

REGIONAL REPORTS...ALBERTA

CITY           SKY/WX    TMP DP  RH WIND       PRES   REMARKS
EDMONTON       SUNNY     79  45  29 W3        29.66S
CALGARY        PTSUNNY   75  45  33 SW9       29.81R SMOKE
LETHBRIDGE     PTSUNNY   79  41  25 W24       29.85R SMOKE
MEDICINE HAT     N/A     81  41  24 S7        29.79F SMOKE
WATERTON GATE    N/A     73  39  29 W18G24      N/A
CARDSTON         N/A     77  39  25 W8G17       N/A
MILK RIVER       N/A     79  37  22 W13         N/A
ONEFOUR          N/A     81  32  17 E5          N/A
$$

REGIONAL REPORTS...SASKATCHEWAN

CITY           SKY/WX    TMP DP  RH WIND       PRES   REMARKS
SWIFT CURRENT  CLEAR     75  50  41 S7        29.85S HAZE
REGINA         CLOUDY    72  57  60 W7        29.85R SMOKE
SASKATOON      CLOUDY    75  61  60 S9        29.79F
CYPRESS HILLS    N/A     75  36  23 SW6         N/A
VAL MARIE        N/A     72  46  40 S8          N/A
ROCKGLEN         N/A     75  52  43 S3          N/A
ASSINIBOIA       N/A     79  46  31 S6          N/A
$$


USA.gov is the U.S. government's official web portal to all federal, state and local government web resources and services.